SXS5FA LTFM-LTAI

Flight info

Callsign SXS5FA
Flight time N/A
Altitude 37000
Route RATVU1D/35L RATVU UT35 BABSA
Aircraft B738/M-SDE2E3FGHIRWXY/LB1

Departure

Time 2026-05-05 22:22
Airport İstanbul Airport (LTFM)

Arrival

Time N/A
Airport Antalya International Airport (LTAI)
Time Latitude Longitude Altitude Speed Heading
2026-05-05 21:29 41.27552 28.73311 298 ft 0 kts 178°
2026-05-05 22:08 41.27563 28.73312 298 ft 0 kts 191°
2026-05-05 22:10 41.27570 28.73313 298 ft 3 kts 181°
2026-05-05 22:10 41.27589 28.73312 301 ft 4 kts 145°
2026-05-05 22:10 41.27598 28.73289 297 ft 3 kts 89°
2026-05-05 22:10 41.27597 28.73265 300 ft 0 kts 89°
2026-05-05 22:15 41.27598 28.73265 300 ft 0 kts 89°
2026-05-05 22:15 41.27598 28.73313 300 ft 11 kts 89°
2026-05-05 22:15 41.27600 28.73429 299 ft 13 kts 89°
2026-05-05 22:15 41.27601 28.73547 297 ft 13 kts 89°
2026-05-05 22:16 41.27603 28.73662 300 ft 13 kts 89°
2026-05-05 22:16 41.27604 28.73801 301 ft 18 kts 89°
2026-05-05 22:16 41.27605 28.73966 297 ft 19 kts 89°
2026-05-05 22:16 41.27606 28.74146 301 ft 19 kts 89°
2026-05-05 22:17 41.27609 28.74322 299 ft 19 kts 89°
2026-05-05 22:17 41.27611 28.74493 298 ft 18 kts 89°
2026-05-05 22:17 41.27614 28.74657 297 ft 18 kts 89°
2026-05-05 22:17 41.27615 28.74832 298 ft 21 kts 89°
2026-05-05 22:18 41.27617 28.75033 297 ft 22 kts 89°
2026-05-05 22:18 41.27619 28.75209 294 ft 14 kts 89°
2026-05-05 22:18 41.27620 28.75301 293 ft 5 kts 90°
2026-05-05 22:18 41.27606 28.75356 295 ft 8 kts 143°
2026-05-05 22:19 41.27549 28.75362 297 ft 10 kts 179°
2026-05-05 22:19 41.27365 28.75366 300 ft 37 kts 179°
2026-05-05 22:19 41.27055 28.75371 305 ft 44 kts 179°
2026-05-05 22:19 41.26759 28.75375 309 ft 41 kts 179°
2026-05-05 22:20 41.26516 28.75378 311 ft 20 kts 179°
2026-05-05 22:20 41.26437 28.75390 310 ft 10 kts 148°
2026-05-05 22:20 41.26418 28.75471 312 ft 10 kts 89°
2026-05-05 22:20 41.26419 28.75558 312 ft 9 kts 89°
2026-05-05 22:21 41.26420 28.75636 312 ft 4 kts 90°
2026-05-05 22:21 41.26439 28.75664 311 ft 5 kts 13°
2026-05-05 22:21 41.26456 28.75665 311 ft 0 kts
2026-05-05 22:22 41.26589 28.75664 307 ft 56 kts 359°
2026-05-05 22:22 41.27180 28.75664 298 ft 121 kts
2026-05-05 22:22 41.28168 28.75822 506 ft 157 kts
2026-05-05 22:22 41.29262 28.75978 1195 ft 156 kts 15°
2026-05-05 22:23 41.30262 28.76596 1769 ft 156 kts 33°
2026-05-05 22:23 41.31208 28.77336 2399 ft 159 kts 30°
2026-05-05 22:23 41.32179 28.78045 2998 ft 160 kts 29°
2026-05-05 22:23 41.33161 28.78759 3567 ft 164 kts 29°
2026-05-05 22:24 41.34227 28.79541 3831 ft 187 kts 29°
2026-05-05 22:24 41.35418 28.80450 4027 ft 207 kts 36°
2026-05-05 22:24 41.36319 28.82001 4130 ft 223 kts 71°
2026-05-05 22:24 41.36414 28.84102 4236 ft 239 kts 104°
2026-05-05 22:25 41.35600 28.86096 4345 ft 259 kts 135°
2026-05-05 22:25 41.34077 28.87426 4734 ft 279 kts 154°
2026-05-05 22:25 41.32237 28.88587 4943 ft 305 kts 155°
2026-05-05 22:25 41.30237 28.89791 5334 ft 322 kts 156°
2026-05-05 22:26 41.28167 28.91019 5991 ft 329 kts 156°
2026-05-05 22:26 41.26018 28.92120 6772 ft 333 kts 162°
2026-05-05 22:26 41.23784 28.93037 7598 ft 338 kts 164°
2026-05-05 22:26 41.21511 28.93860 8413 ft 340 kts 171°
2026-05-05 22:27 41.19185 28.94454 9270 ft 342 kts 167°
2026-05-05 22:27 41.16866 28.95311 9938 ft 350 kts 163°
2026-05-05 22:27 41.14495 28.96322 10707 ft 356 kts 162°
2026-05-05 22:27 41.12162 28.97339 11527 ft 359 kts 162°
2026-05-05 22:28 41.09782 28.98362 12336 ft 363 kts 162°
2026-05-05 22:28 41.07359 28.99383 13110 ft 369 kts 162°
2026-05-05 22:28 41.04896 29.00403 13953 ft 373 kts 162°
2026-05-05 22:28 41.02391 29.01424 14908 ft 378 kts 163°
2026-05-05 22:29 40.99908 29.02426 16238 ft 370 kts 163°
2026-05-05 22:29 40.97396 29.03434 16918 ft 384 kts 163°
2026-05-05 22:29 40.94815 29.04453 17519 ft 384 kts 164°
2026-05-05 22:29 40.92328 29.05384 18344 ft 364 kts 165°
2026-05-05 22:30 40.89884 29.06303 18418 ft 368 kts 164°
2026-05-05 22:30 40.87385 29.07287 18522 ft 380 kts 163°
2026-05-05 22:30 40.84842 29.08290 18543 ft 384 kts 164°
2026-05-05 22:30 40.82262 29.09301 18578 ft 388 kts 164°
2026-05-05 22:31 40.79659 29.10325 18607 ft 392 kts 164°
2026-05-05 22:31 40.77081 29.11368 18597 ft 379 kts 163°
2026-05-05 22:31 40.74663 29.12556 18582 ft 364 kts 155°
2026-05-05 22:31 40.72327 29.13991 18432 ft 387 kts 155°
2026-05-05 22:32 40.69782 29.15462 18696 ft 407 kts 157°
2026-05-05 22:32 40.67181 29.16847 19627 ft 404 kts 158°
2026-05-05 22:32 40.64537 29.18150 20277 ft 409 kts 160°
2026-05-05 22:32 40.61825 29.19405 20874 ft 415 kts 161°
2026-05-05 22:33 40.59072 29.20625 21493 ft 419 kts 161°
2026-05-05 22:33 40.56292 29.21823 22139 ft 422 kts 161°
2026-05-05 22:33 40.53488 29.23014 22736 ft 426 kts 162°
2026-05-05 22:33 40.50656 29.24207 23315 ft 430 kts 162°
2026-05-05 22:34 40.47792 29.25410 23867 ft 433 kts 162°
2026-05-05 22:34 40.44914 29.26633 24404 ft 437 kts 161°
2026-05-05 22:34 40.42031 29.27908 24926 ft 440 kts 161°
2026-05-05 22:34 40.39126 29.29220 25445 ft 443 kts 160°
2026-05-05 22:35 40.36203 29.30547 25924 ft 446 kts 160°
2026-05-05 22:35 40.33266 29.31881 26404 ft 448 kts 160°
2026-05-05 22:35 40.30321 29.33214 27051 ft 446 kts 160°
2026-05-05 22:35 40.27416 29.34563 27762 ft 442 kts 160°
2026-05-05 22:36 40.24532 29.35946 28368 ft 441 kts 159°
2026-05-05 22:36 40.21659 29.37343 28929 ft 440 kts 159°
2026-05-05 22:36 40.18792 29.38739 29506 ft 439 kts 159°
2026-05-05 22:36 40.15956 29.40194 29957 ft 440 kts 155°
2026-05-05 22:37 40.13105 29.41723 30280 ft 443 kts 159°
2026-05-05 22:37 40.10225 29.43104 30904 ft 439 kts 160°
2026-05-05 22:37 40.07360 29.44428 31550 ft 435 kts 160°
2026-05-05 22:37 40.04512 29.45738 32044 ft 435 kts 160°
2026-05-05 22:38 40.01656 29.47063 32438 ft 436 kts 160°
2026-05-05 22:38 39.98786 29.48410 32689 ft 442 kts 160°
2026-05-05 22:38 39.95863 29.49794 32749 ft 452 kts 160°
2026-05-05 22:38 39.92249 29.51513 32876 ft 461 kts 160°
2026-05-05 22:39 39.45323 29.73697 36294 ft 484 kts 160°
2026-05-05 22:39 39.42172 29.75197 36628 ft 481 kts 160°
2026-05-05 22:39 39.39098 29.76675 37074 ft 474 kts 160°
2026-05-05 22:40 39.32960 29.79610 37069 ft 460 kts 160°
2026-05-05 22:40 39.27019 29.82413 37081 ft 458 kts 161°
2026-05-05 22:41 39.21016 29.85226 37081 ft 459 kts 161°
2026-05-05 22:41 39.15001 29.88038 37082 ft 461 kts 161°
2026-05-05 22:42 39.08967 29.90854 37084 ft 462 kts 161°
2026-05-05 22:42 39.02929 29.93668 37073 ft 462 kts 161°
2026-05-05 22:43 38.96887 29.96476 37077 ft 461 kts 161°
2026-05-05 22:43 38.90855 29.99275 37070 ft 460 kts 161°
2026-05-05 22:44 38.84842 30.02061 37066 ft 460 kts 161°
2026-05-05 22:44 38.78836 30.04842 37072 ft 458 kts 161°
2026-05-05 22:45 38.72838 30.07610 37075 ft 458 kts 161°
2026-05-05 22:45 38.66847 30.10371 37079 ft 457 kts 161°
2026-05-05 22:46 38.60859 30.13125 37031 ft 459 kts 161°
2026-05-05 22:46 38.57832 30.14517 36767 ft 467 kts 161°
2026-05-05 22:46 38.54753 30.15929 36531 ft 471 kts 161°
2026-05-05 22:46 38.51674 30.17342 36279 ft 470 kts 161°
2026-05-05 22:47 38.48592 30.18755 36022 ft 470 kts 161°
2026-05-05 22:47 38.45504 30.20168 35772 ft 472 kts 161°
2026-05-05 22:47 38.42411 30.21582 35528 ft 474 kts 161°
2026-05-05 22:47 38.39298 30.23004 35286 ft 475 kts 161°
2026-05-05 22:48 38.36186 30.24426 35041 ft 476 kts 161°
2026-05-05 22:48 38.33056 30.25855 34793 ft 477 kts 161°
2026-05-05 22:48 38.29933 30.27278 34598 ft 477 kts 161°
2026-05-05 22:48 38.26814 30.28698 34395 ft 477 kts 161°
2026-05-05 22:49 38.23689 30.30120 34169 ft 476 kts 161°
2026-05-05 22:49 38.20654 30.31502 33617 ft 464 kts 161°
2026-05-05 22:49 38.17580 30.32898 32486 ft 464 kts 161°
2026-05-05 22:49 38.14569 30.34264 31169 ft 467 kts 161°
2026-05-05 22:50 38.11499 30.35656 29769 ft 470 kts 161°
2026-05-05 22:50 38.08418 30.37051 28393 ft 471 kts 161°
2026-05-05 22:50 38.05335 30.38448 27033 ft 469 kts 161°
2026-05-05 22:50 38.02272 30.39832 25702 ft 469 kts 161°
2026-05-05 22:51 37.99171 30.41233 24481 ft 476 kts 161°
2026-05-05 22:51 37.96096 30.42626 23246 ft 464 kts 161°
2026-05-05 22:51 37.93091 30.43987 21979 ft 455 kts 161°
2026-05-05 22:51 37.90122 30.45326 20741 ft 460 kts 161°
2026-05-05 22:52 37.87092 30.46690 19959 ft 451 kts 161°
2026-05-05 22:52 37.84068 30.48051 19059 ft 481 kts 161°
2026-05-05 22:52 37.81957 30.49002 19017 ft 475 kts 161°
2026-05-05 22:52 37.78996 30.50335 18956 ft 433 kts 161°
2026-05-05 22:53 37.76217 30.51582 18007 ft 417 kts 161°
2026-05-05 22:53 37.73503 30.52800 16862 ft 411 kts 161°
2026-05-05 22:53 37.70825 30.53999 15729 ft 405 kts 161°
2026-05-05 22:53 37.68449 30.55341 14712 ft 398 kts 155°
2026-05-05 22:54 37.65978 30.56807 14193 ft 392 kts 156°
2026-05-05 22:54 37.63485 30.58239 13824 ft 388 kts 156°
2026-05-05 22:54 37.61082 30.59575 13599 ft 369 kts 156°
2026-05-05 22:54 37.58766 30.60817 13449 ft 353 kts 158°
2026-05-05 22:55 37.56558 30.61943 13482 ft 334 kts 160°
2026-05-05 22:55 37.54421 30.62957 13482 ft 320 kts 160°
2026-05-05 22:55 37.52348 30.63925 13154 ft 321 kts 160°
2026-05-05 22:55 37.50221 30.64907 12549 ft 330 kts 161°
2026-05-05 22:56 37.48049 30.65903 12056 ft 333 kts 161°
2026-05-05 22:56 37.45907 30.66882 11540 ft 323 kts 161°
2026-05-05 22:56 37.43822 30.67832 11031 ft 315 kts 161°
2026-05-05 22:56 37.41785 30.68756 10546 ft 306 kts 161°
2026-05-05 22:57 37.39835 30.69639 10076 ft 291 kts 161°
2026-05-05 22:57 37.37981 30.70477 9587 ft 276 kts 161°
2026-05-05 22:57 37.36224 30.71269 9096 ft 262 kts 160°
2026-05-05 22:57 37.34538 30.72027 8588 ft 252 kts 161°
2026-05-05 22:58 37.32921 30.72752 8172 ft 241 kts 161°
2026-05-05 22:58 37.31371 30.73445 7759 ft 232 kts 161°
2026-05-05 22:58 37.29872 30.74117 7385 ft 226 kts 161°
2026-05-05 22:58 37.28407 30.74777 6999 ft 227 kts 160°
2026-05-05 22:59 37.26934 30.75444 6623 ft 224 kts 160°
2026-05-05 22:59 37.25465 30.76111 6357 ft 216 kts 160°
2026-05-05 22:59 37.24092 30.76737 6105 ft 210 kts 160°
2026-05-05 22:59 37.22754 30.77347 5938 ft 201 kts 160°
2026-05-05 23:00 37.20235 30.78499 5606 ft 184 kts 160°
2026-05-05 23:00 37.19053 30.79041 5433 ft 177 kts 160°
2026-05-05 23:00 37.17909 30.79565 5225 ft 173 kts 160°
2026-05-05 23:01 37.16833 30.80193 5010 ft 168 kts 152°
2026-05-05 23:01 37.15796 30.80831 4814 ft 164 kts 155°